This demonstration page uses our WeatherBlox Daily Observations layout. Learn more.

Left ArrowRight Arrow

Hourly Observations for January 4, 2022

Temp ( °F °C ) Dew Point ( °F °C ) Humidity (%) Winds ( mph kmh ) Pressure ( in mb ) Visibility ( mi km ) Precip ( " mm )
12:52 am 00:52 Clear 28 -2.2 20 -6.7 72 72 SSE 14 22 30.22 1024 10 16 0.00 0.00
1:52 am 01:52 Clear 28 -2.2 20 -6.7 72 72 SSE 12 19 30.21 1023 10 16 0.00 0.00
2:52 am 02:52 Clear 27 -2.8 20 -6.7 75 75 SSE 12 19 30.18 1022 10 16 0.00 0.00
3:52 am 03:52 Clear 27 -2.8 19 -7.2 72 72 SSE 12 19 30.16 1021 10 16 0.00 0.00
4:52 am 04:52 Clear 27 -2.8 19 -7.2 72 72 SSE 14 22 30.12 1020 10 16 0.00 0.00
5:52 am 05:52 Clear 27 -2.8 19 -7.2 72 72 SSE 14 22 30.10 1019 10 16 0.00 0.00
6:52 am 06:52 Clear 27 -2.8 19 -7.2 72 72 S 13 20 30.09 1019 10 16 0.00 0.00
7:52 am 07:52 Sunny 27 -2.8 19 -7.2 72 72 SSE 17 28 30.03 1017 10 16 0.00 0.00
8:52 am 08:52 Sunny 30 -1.1 19 -7.2 64 64 SSE 17 28 30.02 1017 10 16 0.00 0.00
9:52 am 09:52 Sunny 36 2.2 20 -6.7 52 52 SSE 17 28 29.98 1015 10 16 0.00 0.00
10:22 am 10:22 Mostly Sunny 38 3.3 20 -6.7 48 48 S 23 37 29.98 1015 7 11 0.00 0.00
10:52 am 10:52 Sunny 39 3.9 21 -6.1 48 48 S 22 35 29.97 1015 10 16 0.00 0.00
11:52 am 11:52 Sunny 41 5 23 -5 49 49 S 26 43 29.87 1012 10 16 0.00 0.00
12:52 pm 12:52 Sunny 45 7.2 23 -5 42 42 S 20 31 29.82 1010 8 13 0.00 0.00
1:52 pm 13:52 Sunny 47 8.3 21 -6.1 36 36 S 25 41 29.73 1007 9 14 0.00 0.00
2:52 pm 14:52 Sunny 48 8.9 20 -6.7 33 33 S 24 39 29.73 1007 9 14 0.00 0.00
3:52 pm 15:52 Sunny 46 7.8 20 -6.7 35 35 S 22 35 29.74 1007 10 16 0.00 0.00
4:52 pm 16:52 Sunny 46 7.8 21 -6.1 37 37 SSW 16 26 29.77 1008 10 16 0.00 0.00
5:52 pm 17:52 Clear 42 5.6 22 -5.6 45 45 S 13 20 29.79 1009 10 16 0.00 0.00
6:52 pm 18:52 Clear 43 6.1 23 -5 45 45 SSW 16 26 29.79 1009 10 16 0.00 0.00
7:52 pm 19:52 Clear 44 6.7 24 -4.4 45 45 SW 20 31 29.80 1009 10 16 0.00 0.00
8:52 pm 20:52 Clear 44 6.7 25 -3.9 47 47 SW 20 31 29.80 1009 10 16 0.00 0.00
9:52 pm 21:52 Clear 44 6.7 25 -3.9 47 47 SW 17 28 29.81 1010 10 16 0.00 0.00
10:52 pm 22:52 Clear 44 6.7 25 -3.9 47 47 SW 17 28 29.81 1010 10 16 0.00 0.00
11:52 pm 23:52 Clear 42 5.6 26 -3.3 53 53 SW 12 19 29.82 1010 10 16 0.00 0.00

Powered by AerisWeather